Springfield, CO

7:04 AM MST on November 20, 2017 (GMT -0700)
Springfield

Weather History for KSPD - March, 2014

Change the Weather History Date:

Thursday, March 6, 2014

  Actual Average Record
Temperature  
Mean Temperature 50 °F -  
Max Temperature 72 °F 55 °F 78 °F (2012)
Min Temperature 27 °F 25 °F 18 °F (2003)
Degree Days  
Heating Degree Days 15 25  
Month to date heating degree days 207 154  
Since 1 July heating degree days 4204 4160  
Cooling Degree Days 0 0  
Month to date cooling degree days 0 0  
Year to date cooling degree days 0 0  
Moisture  
Dew Point 19 °F    
Average Humidity 47    
Maximum Humidity 85    
Minimum Humidity 9    
Precipitation  
Precipitation 0.00 in 0.03 in 0.00 in (2017)
Month to date precipitation 0.07 0.15  
Year to date precipitation 0.40 0.96  
Sea Level Pressure  
Sea Level Pressure 29.86 in    
Wind  
Wind Speed 11 mph (SSW)    
Max Wind Speed 17 mph    
Max Gust Speed 23 mph    
T = Trace of Precipitation, MM = Missing Value Source: NWS Daily Summary

Daily Weather History Graph

Daily Weather History Graph

Search for Another Location

Airport or City:

Trip Planner

Search our weather history database for the weather conditions in past years. The results will help you decide how hot, cold, wet, or windy it might be!

Date:

Astronomy

Mar. 06, 2014 Rise Set
Actual Time 6:14 AM MST 5:49 PM MST
Civil Twilight 5:48 AM MST 6:15 PM MST
Nautical Twilight 5:18 AM MST 6:45 PM MST
Astronomical Twilight 4:48 AM MST 7:15 PM MST
Moon 9:31 AM MST (3/6) 11:49 PM MST (3/6)
Length of Visible Light 12h 26m
Length of Day
11h 34m
Waxing Crescent, 33% of the Moon is Illuminated
Mar 6
Waxing Crescent
Mar 8
First Quarter
Mar 16
Full
Mar 23
Last Quarter
Mar 30
New

Hourly Weather History & Observations

Time (MST) Temp. Windchill Dew Point Humidity Pressure Visibility Wind Dir Wind Speed Gust Speed Precip Events Conditions
12:56 AM 28.9 °F 20.4 °F 25.0 °F 85% 30.10 in - SW 9.2 mph - N/A   Unknown
1:56 AM 30.9 °F 21.7 °F 24.1 °F 76% 30.07 in - WSW 11.5 mph - N/A   Unknown
2:56 AM 35.1 °F 25.5 °F 25.0 °F 67% 30.03 in - SW 15.0 mph - N/A   Unknown
3:56 AM 36.0 °F 28.0 °F 26.1 °F 67% 30.00 in - SSW 11.5 mph - N/A   Unknown
4:56 AM 30.9 °F 20.7 °F 24.1 °F 76% 30.00 in - SW 13.8 mph - N/A   Unknown
5:56 AM 28.0 °F 24.2 °F 21.9 °F 78% 30.01 in - Variable 3.5 mph - N/A   Unknown
6:56 AM 30.0 °F 26.5 °F 23.0 °F 75% 30.04 in - NW 3.5 mph - N/A   Unknown
7:56 AM 46.9 °F - 26.1 °F 44% 29.99 in - WSW 8.1 mph - N/A   Unknown
8:56 AM 57.0 °F - 24.1 °F 28% 29.96 in - SW 11.5 mph - N/A   Unknown
9:56 AM 64.0 °F - 17.1 °F 16% 29.93 in - SSW 9.2 mph - N/A   Unknown
10:56 AM 66.0 °F - 12.9 °F 13% 29.90 in - South 12.7 mph - N/A   Unknown
11:56 AM 68.0 °F - 10.9 °F 11% 29.86 in - SSW 9.2 mph 21.9 mph N/A   Unknown
12:56 PM 70.0 °F - 10.0 °F 10% 29.81 in - South 6.9 mph - N/A   Unknown
1:56 PM 71.1 °F - 10.0 °F 9% 29.76 in - South 8.1 mph - N/A   Unknown
2:56 PM 70.0 °F - 10.0 °F 10% 29.72 in - South 10.4 mph 23.0 mph N/A   Unknown
3:56 PM 69.1 °F - 12.0 °F 11% 29.72 in - SSE 17.3 mph 21.9 mph N/A   Unknown
4:56 PM 63.0 °F - 16.0 °F 16% 29.75 in - South 15.0 mph - N/A   Unknown
5:56 PM 57.9 °F - 19.0 °F 22% 29.77 in - South 12.7 mph - N/A   Unknown
6:56 PM 52.0 °F - 19.9 °F 28% 29.78 in - South 12.7 mph - N/A   Unknown
7:56 PM 48.0 °F - 19.9 °F 33% 29.73 in - South 11.5 mph - N/A   Unknown
8:56 PM 45.0 °F 39.3 °F 19.9 °F 37% 29.70 in - SSW 11.5 mph - N/A   Unknown
9:56 PM 46.9 °F - 19.9 °F 34% 29.66 in - SSW 10.4 mph - N/A   Unknown
10:56 PM 41.0 °F 35.8 °F 19.9 °F 43% 29.63 in - SSW 8.1 mph - N/A   Unknown
11:56 PM 41.0 °F 35.2 °F 21.0 °F 45% 29.61 in - WSW 9.2 mph - N/A   Unknown